This is the latest recevied weather packets stored in our database for station/object KC3VCX. If no packets are shown the sender has not sent any weather packets the latest 1 day(s).
| Time | Temp. | Humidity | Pressure | Rain* | Wind** | Luminosity | Snow |
|---|---|---|---|---|---|---|---|
| 1778061311 | 12.78° C | 93% | 1008.3 hPa | 1.27 mm | - | 0 W/m² | - |
| 1778059798 | 12.78° C | 93% | 1008.7 hPa | 6.1 mm | - | 0 W/m² | - |
| 1778058891 | 12.78° C | 93% | 1008.8 hPa | 4.83 mm | - | 0 W/m² | - |
| 1778058587 | 12.78° C | 93% | 1008.6 hPa | 4.32 mm | - | 0 W/m² | - |
| 1778058285 | 12.78° C | 92% | 1008.9 hPa | 4.83 mm | - | 0 W/m² | - |
| 1778057981 | 12.78° C | 92% | 1008.7 hPa | 3.05 mm | - | 0 W/m² | - |
| 1778057678 | 12.78° C | 92% | 1008.6 hPa | 3.05 mm | - | 0 W/m² | - |
| 1778057374 | 12.78° C | 92% | 1008.9 hPa | 3.56 mm | - | 0 W/m² | - |
| 1778056767 | 12.78° C | 92% | 1008.6 hPa | 3.05 mm | - | 0 W/m² | - |
| 1778056465 | 12.78° C | 92% | 1008.7 hPa | 3.05 mm | - | 0 W/m² | - |
| 1778056162 | 12.78° C | 92% | 1008.5 hPa | 1.27 mm | - | 0 W/m² | - |
| 1778055859 | 12.78° C | 92% | 1008.7 hPa | 0 mm | - | 0 W/m² | - |
| 1778055554 | 12.78° C | 92% | 1008.6 hPa | 0 mm | - | 0 W/m² | - |
| 1778054950 | 12.78° C | 92% | 1008.4 hPa | 0 mm | - | 0 W/m² | - |
| 1778054647 | 12.78° C | 92% | 1008.4 hPa | 0 mm | - | 0 W/m² | - |
| 1778053739 | 12.78° C | 92% | 1008.7 hPa | 0 mm | - | 0 W/m² | - |
| 1778052831 | 12.78° C | 91% | 1008.8 hPa | 0 mm | - | 0 W/m² | - |
| 1778052527 | 12.78° C | 91% | 1009 hPa | 1.78 mm | - | 0 W/m² | - |
| 1778051923 | 13.33° C | 91% | 1009.2 hPa | 0 mm | - | 0 W/m² | - |
| 1778051621 | 12.78° C | 91% | 1009.5 hPa | 1.27 mm | - | 0 W/m² | - |
| 1778051317 | 13.33° C | 91% | 1009.2 hPa | 1.27 mm | - | 0 W/m² | - |
| 1778051014 | 13.33° C | 91% | 1009.3 hPa | 1.78 mm | - | 0 W/m² | - |
| 1778049801 | 13.33° C | 90% | 1009.8 hPa | 1.27 mm | - | 0 W/m² | - |
| 1778049196 | 13.33° C | 89% | 1009.8 hPa | 3.05 mm | - | 0 W/m² | - |
| 1778046470 | 13.89° C | 85% | 1010.4 hPa | 1.78 mm | - | 0 W/m² | - |
* Rain latest hour (hover to see other rain measurements)
** Current wind speed in m/s (hover to see current wind gust speed)